Location: Bakhuizen
(52.8696°N, 5.4575°E)
Time: 02:48:03
(UTC+00:00)

Cosmos 1833 - Pass Details

Date: 11 May 2021
Orbit: 833 x 865 km, 70.9° (Epoch: 14 June)

Event Time Altitude Azimuth Distance (km) Brightness Sun altitude
Rises 22:58:07 0° 328° (NNW) 3,441 8.6 -18.6°
Reaches altitude 10° 23:00:34 10° 329° (NNW) 2,505 7.7 -18.6°
Maximum altitude 23:06:22 83° 58° (ENE) 876 4.2 -18.7°
Enters shadow 23:09:28 29° 144° (SE) 1,538 5.1 -18.8°
